Overview Statistics Trail Chart Weather Telemetry Raw packets
 

This is the latest recevied weather packets stored in our database for station/object W8KVG. If no packets are shown the sender has not sent any weather packets the latest 10 day(s).

<< 3 4 5 6 7 8 9 >>
Time Temp. Humidity Pressure Rain* Wind** Luminosity Snow
1777904211 16.11° C 52% 1009.6 hPa 0 mm - 41 W/m² -
1777903909 16.11° C 52% 1009.5 hPa 0 mm - 40 W/m² -
1777903605 15.56° C 54% 1009.5 hPa 0 mm - 40 W/m² -
1777903301 15.56° C 55% 1009.5 hPa 0 mm - 40 W/m² -
1777902998 15° C 54% 1009.7 hPa 0 mm - 40 W/m² -
1777902694 15° C 54% 1009.9 hPa 0 mm - 39 W/m² -
1777902392 15° C 57% 1009.9 hPa 0 mm - 39 W/m² -
1777902088 15° C 54% 1009.9 hPa 0 mm - 39 W/m² -
1777901787 15° C 55% 1010.1 hPa 0 mm - 38 W/m² -
1777901503 15° C 54% 1010.1 hPa 0 mm - 38 W/m² -
1777901181 14.44° C 54% 1010.3 hPa 0 mm - 37 W/m² -
1777900879 14.44° C 55% 1010.1 hPa 0 mm - 37 W/m² -
1777900576 14.44° C 55% 1010.1 hPa 0 mm - 37 W/m² -
1777900273 14.44° C 56% 1010.1 hPa 0 mm - 36 W/m² -
1777899969 13.89° C 56% 1010.2 hPa 0 mm - 36 W/m² -
1777899666 13.89° C 56% 1010.3 hPa 0 mm - 36 W/m² -
1777899364 13.89° C 56% 1010.1 hPa 0 mm - 35 W/m² -
1777899061 13.33° C 57% 1010.2 hPa 0 mm - 35 W/m² -
1777898758 13.33° C 57% 1009.9 hPa 0 mm - 34 W/m² -
1777898455 13.33° C 58% 1010 hPa 0 mm - 34 W/m² -
1777898153 12.78° C 58% 1010 hPa 0 mm - 33 W/m² -
1777897850 12.78° C 59% 1010 hPa 0 mm - 33 W/m² -
1777897546 12.78° C 59% 1010.1 hPa 0 mm - 32 W/m² -
1777897242 12.78° C 59% 1009.9 hPa 0 mm - 32 W/m² -
1777896938 12.22° C 59% 1010 hPa 0 mm - 31 W/m² -

* Rain latest hour (hover to see other rain measurements)
** Current wind speed in m/s (hover to see current wind gust speed)